Flag for Canada Weather past 2 weeks in Windsor, Ontario, Canada

Now
61 °F

Passing clouds.


Feels Like: 61 °F
Forecast: 52 / 74 °F
Wind: 8 mph from Northeast

Location: Windsor Weather Station

Current Time: Jul 2, 2015 at 10:44:39 PM

Latest Report: Jul 2, 2015 at 10:00 PM


Visibility: 15 mi

Pressure: 29.99 "Hg

Humidity: 68%

Dew point: 50 °F

Location of WindsorLocation

Historic Weather in Windsor — Graph

°F

Windsor temperature yesterday

Maximum temperature yesterday: 73 °F (at 4:00 PM)
Minimum temperature yesterday: 63 °F (at 2:00 AM)
Average temperature yesterday: 66 °F

Past Weeks' High & Low Weather Summary

 TemperatureHumidityPressure
High84 °F (Jun 21, 5:00 PM)100% (Jun 20, 5:00 AM)30.16 "Hg (Jun 20, 5:00 AM)
Low55 °F (Jun 20, 1:00 AM)32% (Jun 24, 2:00 PM)29.68 "Hg (Jun 27, 7:00 PM)
Average68 °F77%29.92 "Hg
* Reported Jun 17 9:00 PM — Jul 2 9:00 PM, Windsor, Weather by CustomWeather, © 2015

Note: Actual official high and low records may vary slightly from our data, if they occured in-between our weather recording intervals... More about our weather records

Advertising

Windsor weather history for previous 24 hours

 ConditionsComfort  
Time TempWeatherWind HumidityBarometerVisibility
9:00 PM
Thu, Jul 2
63 °FPassing clouds.9 mph64%29.98 "Hg15 mi
8:00 PM68 °FPassing clouds.10 mph56%29.98 "Hg15 mi
7:00 PM70 °FPassing clouds.13 mph50%29.98 "Hg15 mi
6:00 PM72 °FPassing clouds.14 mph53%29.97 "Hg15 mi
5:00 PM72 °FPassing clouds.10 mph53%29.98 "Hg15 mi
4:00 PM72 °FPassing clouds.10 mph57%29.99 "Hg15 mi
3:00 PM72 °FPassing clouds.12 mph53%29.98 "Hg15 mi
2:00 PM72 °FScattered clouds.12 mph53%29.99 "Hg15 mi
1:00 PM72 °FScattered clouds.10 mph57%30.00 "Hg15 mi
12:00 PM70 °FPartly sunny.8 mph64%30.01 "Hg15 mi
11:00 AM66 °FPassing clouds.10 mph68%30.01 "Hg15 mi
10:00 AM66 °FScattered clouds.9 mph73%30.00 "Hg15 mi
9:00 AM63 °FScattered clouds.13 mph77%30.00 "Hg15 mi
8:00 AM63 °FScattered clouds.9 mph83%29.99 "Hg15 mi
7:00 AM59 °FPassing clouds.8 mph88%29.98 "Hg15 mi
6:00 AM57 °FPassing clouds.8 mph88%29.97 "Hg15 mi
5:00 AM57 °FPassing clouds.6 mph94%29.97 "Hg15 mi
4:00 AM59 °FPassing clouds.5 mph94%29.96 "Hg15 mi
3:00 AM61 °FPassing clouds.7 mph88%29.96 "Hg15 mi
2:00 AM59 °FPassing clouds.7 mph94%29.95 "Hg15 mi
1:00 AM61 °FPassing clouds.8 mph88%29.96 "Hg15 mi
12:00 AM63 °FPassing clouds.10 mph88%29.95 "Hg15 mi
11:00 PM
Wed, Jul 1
63 °FPassing clouds.7 mph83%29.95 "Hg15 mi
10:00 PM64 °FMostly cloudy.6 mph78%29.94 "Hg15 mi
Weather by CustomWeather, © 2015

See weather overviewHow to use our weather pages